Regional Weather Roundup
Issued by NWS

Home | Current Version | Previous Version | Text Only | Print | Product List | Glossary Off
Versions: 1 2 3 4 5 6 7 8 9 10 11 12 13 14 15 16 17 18 19 20 21 22 23 24 25 26 27 28 29 30 31 32 33 34 35 36 37 38 39 40 41 42 43 44 45 46 47 48 49 50

000
ASUS43 KLOT 020021
RWRIL

ILLINOIS REGIONAL WEATHER ROUNDUP
NATIONAL WEATHER SERVICE CHICAGO/ROMEOVILLE IL
700 PM CDT WED APR 01 2015

NOTE: "FAIR" INDICATES FEW OR NO CLOUDS BELOW 12,000 FEET WITH NO
SIGNIFICANT WEATHER AND/OR OBSTRUCTIONS TO VISIBILITY.

* THESE STATIONS ARE NOT UNDER NWS QUALITY CONTROL. THEY ALSO MAY NOT
  REPORT WEATHER SUCH AS PRECIPITATION OR FOG.

ILZ001-002-007-009-015-016-024-020100-
NORTHWEST ILLINOIS

CITY           SKY/WX    TMP DP  RH WIND       PRES   REMARKS
MOLINE         CLEAR     73  33  23 S18G25    29.79S
6HR MIN TEMP:  73; 6HR MAX TEMP:  80;

STERLING*      CLEAR     70  37  30 S9G17     29.82F
SAVANNA*       CLEAR     73  32  22 S25G31    29.78S
$$

ILZ003-004-008-010-011-017-018-020100-
NORTH CENTRAL ILLINOIS

CITY           SKY/WX    TMP DP  RH WIND       PRES   REMARKS
ROCKFORD       MOCLDY    71  36  27 S23G32    29.83R
6HR MIN TEMP:  71; 6HR MAX TEMP:  77;

FREEPORT*      CLEAR     68  38  32 S18       29.82S
ROCHELLE*      CLEAR     69  38  32 S20G26    29.84S
DE KALB*       CLEAR     66  38  36 S23G30    29.86R
PERU*          CLEAR     69  37  30 S21G30    29.87S
$$

ILZ005-006-012>014-019>023-020100-
NORTHEAST ILLINOIS

CITY           SKY/WX    TMP DP  RH WIND       PRES   REMARKS
CHICAGO-OHARE  MOCLDY    68  37  32 S22G33    29.86S
6HR MIN TEMP:  67; 6HR MAX TEMP:  72;

CHICAGO-MIDWAY MOCLDY    71  37  28 S21G31    29.89S
6HR MIN TEMP:  69; 6HR MAX TEMP:  74;

AURORA         CLEAR     70  36  28 S18G28    29.86S
6HR MIN TEMP:  70; 6HR MAX TEMP:  76;

LANSING*       PTCLDY    65  33  30 S16       29.91F
JOLIET*        CLEAR     70  40  33 S13G22    29.89S
WAUKEGAN       PTCLDY    56  37  49 SE7       29.84F
6HR MIN TEMP:  52; 6HR MAX TEMP:  58;

DUPAGE AIRPORT CLEAR     69  37  30 S21G28    29.86S
6HR MIN TEMP:  69; 6HR MAX TEMP:  74;

KANKAKEE*      CLEAR     65  40  39 S12       29.93S
WHEELING       PTCLDY    69  36  29 S18G28    29.87S
6HR MIN TEMP:  67; 6HR MAX TEMP:  73;

MORRIS*        CLEAR     68  38  32 S20G26    29.88S
ROMEOVILLE*    CLEAR     66  36  32 S18G28    29.88S
NORTHERLY ISL    N/A     68  34  28 S15         N/A
$$

LMZ740>746-020100-
SOUTHERN LAKE MICHIGAN

STATION/POSITION SKY/WX   TEMP    WIND        PRES    VSBY  WAVE
                          AIR SEA DIR/SP/G                  HT/PER
                          (F)     (DEG/KT/KT) (MB)    (MI)  (FT/S)
HARRISON CRIB              62     180/ 24/ 29   N/A
BURNHAM HARBOR             68     170/ 15/ 18   N/A
CALUMET HARBOR             69     170/ 12/ 19 1011.3F
BURNS HARBOR               68     180/ 16/ 22 1013.5F
MICHIGAN CITY              66     160/ 13/ 16   N/A
$$

ILZ025>027-034>036-040-047-049-050-058-095>099-020100-
WEST-CENTRAL ILLINOIS

CITY           SKY/WX    TMP DP  RH WIND       PRES   REMARKS
QUINCY         MOCLDY    71  36  27 S14       29.81F
GALESBURG*     PTCLDY    69  37  30 S13G21    29.83F
MACOMB*        MOCLDY    70  37  29 S18       29.84F
JACKSONVILLE*  MOCLDY    71  39  31 SE13G18   29.87F
PITTSFIELD*    CLOUDY    70  39  33 SE10      29.85F
$$

ILZ028>032-037-038-041>044-048-051>054-059>061-020100-
CENTRAL ILLINOIS

CITY           SKY/WX    TMP DP  RH WIND       PRES   REMARKS
PONTIAC        PTCLDY    68  41  37 S18       29.91S
BLOOMINGTON    PTCLDY    65  43  44 S20       29.91F
DECATUR        MOCLDY    67  41  38 S13       29.93F
PEORIA         PTCLDY    70  40  33 S18G25    29.87S
6HR MIN TEMP:  70; 6HR MAX TEMP:  79;

LACON*         CLEAR     69  37  30 S16G24    29.86S
LINCOLN*       PTCLDY    68  41  38 S13       29.89S
SPRINGFIELD    PTCLDY    70  38  31 S20       29.89F
6HR MIN TEMP:  70; 6HR MAX TEMP:  76;

TAYLORVILLE    PTCLDY    66  41  39 SE10      29.92S
$$

ILZ033-039-045-046-055>057-062-063-020100-
EAST-CENTRAL ILLINOIS

CITY           SKY/WX    TMP DP  RH WIND       PRES   REMARKS
CHAMPAIGN      PTCLDY    65  40  39 S14       29.95F
DANVILLE*      PTCLDY    63  40  43 S9        29.94S
RANTOUL*       PTCLDY    66  42  41 S14       29.94F
MATTOON        PTCLDY    65  40  39 S10       29.95F
PARIS*         MOCLDY    62  43  49 S10       29.99S
$$

ILZ079-100>102-020100-
SOUTHWEST ILLINOIS

CITY           SKY/WX    TMP DP  RH WIND       PRES   REMARKS
ALTON          MOCLDY    70  30  23 S14       29.90F
BELLEVILLE     CLOUDY    70  39  32 VRB7      29.90F
CAHOKIA*       CLOUDY    72  39  30 S10G22    29.89F
SPARTA*        CLOUDY    70  39  32 S7        29.93F
$$

ILZ064>066-069>071-074>076-080>082-084>086-088>090-092>094-020100-
SOUTH-CENTRAL ILLINOIS

CITY           SKY/WX    TMP DP  RH WIND       PRES   REMARKS
CARBONDALE     CLOUDY    69  39  33 S7        29.94F
6HR MIN TEMP:  69; 6HR MAX TEMP:  76;

CAIRO*         CLOUDY    70  45  40 CALM      29.96R
EFFINGHAM*     PTCLDY    67  34  29 SE10      29.98S
MARION         CLOUDY    72  37  28 SE5       29.96R
MT. VERNON     MOCLDY    68  37  32 SE6       29.96S
CENTRALIA*     MOCLDY    67  37  32 SE8       29.95S
SALEM*         MOCLDY    71  35  26 SE9       29.94F
METROPOLIS*    CLOUDY    70  43  37 CALM      29.96R
$$

ILZ067-068-072-073-078-083-087-091-020100-
SOUTHEAST ILLINOIS

CITY           SKY/WX    TMP DP  RH WIND       PRES   REMARKS
LAWRENCEVILLE  PTCLDY    64  38  38 SE8       30.00S
FLORA*         PTCLDY    65  41  40 SE12      29.96F
FAIRFIELD*     MOCLDY    67  40  37 SE10      29.94F
HARRISBURG*    MOCLDY    66  44  44 SE7       29.98R
ROBINSON*      PTCLDY    64  36  36 SE7       30.00F
CARMI*         MOCLDY    65  36  33 E10       29.96F
$$

ABBREVIATIONS USED IN REMARKS
   TC - TEMPERATURE IN CELSIUS
  WCI - WIND CHILL INDEX
   HX - HEAT INDEX
  VSB - VISIBILITY
$$



USA.gov is the U.S. government's official web portal to all federal, state and local government web resources and services.